Terminal Aerodrome Forecast
Issued by NWS

Home | Current Version | Previous Version | Text Only | Print | Product List | Glossary On
Versions: 1 2 3 4 5 6 7 8 9 10 11 12 13 14 15 16 17 18 19 20 21 22 23 24 25 26
770
FTUS41 KBUF 211137
TAFIAG
TAF
KIAG 211137Z 2112/2212 00000KT 5SM BR OVC110
     FM211400 20006KT P6SM OVC090
     FM211800 21005KT P6SM OVC012
     FM220400 06004KT 5SM BR OVC012=

USA.gov is the U.S. government's official web portal to all federal, state and local government web resources and services.